ROMMA est une association bénévole à but non lucratif. Votre soutien est indispensable : ADHERER à ROMMA ou FAIRE un DON

Saint-Martin-d'Hères - (38, Isère)

Vallée du Grésivaudan (220 m)   Longitude: 05° 45' 05" E   Latitude: 45° 10' 02" N Station partenaire n°4
 

Détail journalier du     <<     >>

Température Precipitation Humidité Pression Vent Dir Rafale Dir. rafale Ensol.
Heure (°C) (mm) (%) (hPa) (km/h) (km/h) (min)
01:00 13.3093101900---0
02:00 12.9094101800---0
03:00 12.4094101800---0
04:00 12.1095101800---0
05:00 11.7095101700---0
06:00 11.2095101700---0
07:00 11.10961016010NNO0
08:00 11.0096101600---0
09:00 11.2096101600---0
10:00 11.7096101600---0
11:00 14.1097101600---20
12:00 17.2080101503SE40
13:00 20.106410141NO11NO40
14:00 21.805810134S15SSO50
15:00 20.906010136SSE21SSE0
16:00 20.306710123SSO19SSE0
17:00 18.707510121S11SSE0
18:00 17.8079101200---0
19:00 17.1082101200---0
20:00 16.7083101202S0
21:00 16.608310131---8SSO0
22:00 16.408410131S11SSE0
23:00 16.208510131---16SSO0
minuit 15.9086101306SSO0

Graphique du 10-10-2018

 

Serveur OMMA